Flag for Australia Weather past 2 weeks in Wagga Wagga, New South Wales, Australia

Now
57 °F

Clear.


Feels Like: 56 °F
Forecast: 52 / 74 °F
Wind: 7 mph from Southwest

Location: Wagga Airport

Current Time: Mar 6, 2015 at 1:50:12 AM

Latest Report: Mar 6, 2015 at 1:00 AM


Visibility: N/A

Pressure: 29.92 "Hg

Humidity: 33%

Dew point: 28 °F

Location of Wagga WaggaLocation

Historic Weather in Wagga Wagga — Graph

°F

Wagga Wagga temperature yesterday

Maximum temperature yesterday: 73 °F (at 3:00 PM)
Minimum temperature yesterday: 59 °F (at 7:00 AM)
Average temperature yesterday: 65 °F

Past Weeks' High & Low Weather Summary

 TemperatureHumidityPressure
High95 °F (Feb 23, 3:00 PM)94% (Feb 24, 6:00 AM)30.09 "Hg (Feb 24, 6:00 AM)
Low57 °F (Mar 4, 5:00 AM)5% (Mar 4, 4:00 PM)29.62 "Hg (Mar 1, 2:00 AM)
Average76 °F46%29.88 "Hg
* Reported Midnight between Feb 18 and Feb 19 — Midnight between Mar 5 and Mar 6, Wagga Wagga, Weather by CustomWeather, © 2015

Note: Actual official high and low records may vary slightly from our data, if they occured in-between our weather recording intervals... More about our weather records

Advertising

Wagga Wagga weather history for previous 24 hours

 ConditionsComfort  
Time TempWeatherWind HumidityBarometerVisibility
12:00 AM
Fri, Mar 6
57 °FClear.5 mph31%29.92 "HgN/A
11:00 PM
Thu, Mar 5
61 °FClear.13 mph23%29.95 "HgN/A
10:00 PM63 °FClear.16 mph20%29.95 "HgN/A
9:00 PM63 °FClear.14 mph20%29.92 "HgN/A
8:00 PM64 °FClear.17 mph18%29.89 "HgN/A
7:00 PM68 °FSunny.20 mph16%29.89 "HgN/A
6:00 PM72 °FSunny.22 mph15%29.86 "HgN/A
5:00 PM72 °FSunny.20 mph16%29.86 "Hg10 mi
4:00 PM73 °FSunny.23 mph13%29.86 "Hg10 mi
3:00 PM73 °FSunny.20 mph14%29.89 "Hg10 mi
2:00 PM72 °FSunny.26 mph16%29.89 "Hg10 mi
1:00 PM70 °FSunny.24 mph18%29.89 "Hg10 mi
12:00 PM68 °FSunny.23 mph20%29.92 "Hg10 mi
11:00 AM66 °FSunny.28 mph15%29.92 "Hg10 mi
10:00 AM64 °FPassing clouds.28 mph22%29.89 "HgN/A
9:00 AM63 °FPassing clouds.24 mph49%29.89 "HgN/A
8:00 AM61 °FSunny.16 mph63%29.89 "Hg10 mi
7:00 AM59 °FSunny.10 mph63%29.86 "Hg10 mi
6:00 AM61 °FClear.16 mph59%29.83 "Hg10 mi
5:00 AM63 °FClear.14 mph52%29.83 "HgN/A
4:00 AM63 °FClear.12 mph45%29.83 "HgN/A
3:00 AM64 °FClear.13 mph40%29.83 "HgN/A
2:00 AM61 °FClear.2 mph39%29.83 "HgN/A
1:00 AM63 °FClear.No wind34%29.83 "HgN/A
Weather by CustomWeather, © 2015

See weather overviewHow to use our weather pages